Weather observations for the past three days for
Springfield, Hartness State Springfield Airport
Metric (Imperial)
Date Time (edt) Wind (kph) Vis. (km) Weather Sky Cond. Temperature (ºC) Relative Humidity Wind Chill (°C) Heat Index (°C) Pressure Precipitation (cm)
Air Dwpt 6 hour altimeter (cm) sea level (mb) 1 hr 3 hr 6 hr
Max. Min.
16 08:54 Calm 16.09 Fair CLR 15 6.7 58% 76.96 1026.1
16 07:54 NE 6 16.09 Fair CLR 11.1 6.1 11.1 5 72% 76.99 1026.3
16 06:54 W 6 16.09 Fair CLR 7.8 5.6 86% 76.94 1025.9
16 05:54 Calm 16.09 Fair CLR 5.6 3.9 89% 76.89 1025.3
16 04:54 Calm 16.09 Fair CLR 5.6 3.9 89% 76.81 1024.1
16 03:54 Calm 16.09 Fair CLR 6.7 5 89% 76.73 1023.3
16 02:54 Calm 16.09 Fair CLR 7.2 5.6 90% 76.71 1023.0
16 01:54 Calm 16.09 Fair CLR 8.9 6.1 18.9 8.3 83% 76.71 1022.9
16 00:54 Vrbl 6 16.09 Fair CLR 9.4 6.1 80% 76.68 1022.5
15 23:54 Calm 16.09 Fair CLR 11.1 6.1 72% 76.66 1021.9
15 22:54 Calm 16.09 Fair CLR 12.2 6.1 67% 76.61 1021.3
15 21:54 Vrbl 6 16.09 Fair CLR 15 5.6 54% 76.53 1020.4
15 20:54 N 7 16.09 Fair CLR 17.2 5 45% 76.48 1019.7
15 19:54 N 11 16.09 Fair CLR 18.9 5.6 22.8 18.9 42% 76.4 1018.6
15 18:54 Vrbl 9 16.09 Fair CLR 20.6 6.1 39% 76.33 1017.6
15 17:54 N 7 16.09 A Few Clouds FEW065 21.1 6.1 38% 76.28 1017.0
15 16:54 NW 19 16.09 A Few Clouds FEW065 21.7 5.6 35% 76.28 1016.9
15 15:54 Vrbl 7 G 28 16.09 A Few Clouds FEW065 22.2 6.1 35% 76.25 1016.4
15 14:54 NW 13 G 33 16.09 Fair CLR 21.7 5.6 35% 76.25 1016.4
15 13:54 NW 20 G 35 16.09 Partly Cloudy SCT065 21.7 5 22.2 18.3 34% 76.25 1016.5
15 12:54 N 13 G 41 16.09 A Few Clouds FEW060 21.7 4.4 32% 76.25 1016.4
15 11:54 NE 17 G 39 16.09 A Few Clouds FEW060 21.1 4.4 34% 76.23 1016.2
15 10:54 NW 17 G 35 16.09 A Few Clouds FEW055 20 4.4 36% 76.23 1016.0
15 09:54 N 17 G 26 16.09 A Few Clouds FEW050 19.4 6.1 42% 76.23 1016.1
15 08:54 N 19 G 30 16.09 Fair CLR 18.3 6.1 45% 76.23 1016.2
15 07:54 N 13 G 33 16.09 Fair CLR 18.3 6.7 18.3 15 47% 76.23 1016.2
15 06:54 Calm 16.09 Fair CLR 17.2 10 63% 76.2 1015.6
15 05:54 E 6 16.09 Partly Cloudy SCT090 15.6 10.6 72% 76.12 1014.8
15 04:54 Calm 16.09 Overcast SCT050 OVC080 15.6 11.1 75% 76.07 1013.9
15 03:54 Calm 16.09 Overcast OVC080 16.1 11.1 72% 76 1013.1
15 02:54 W 6 16.09 Mostly Cloudy BKN070 16.1 11.1 72% 75.97 1012.8
15 01:54 Vrbl 6 16.09 A Few Clouds FEW075 17.2 11.7 22.8 17.2 70% 75.95 1012.3
15 00:54 Calm 16.09 Overcast BKN060 OVC070 20 11.1 57% 75.95 1012.4
14 23:54 Calm 16.09 Mostly Cloudy BKN060 20.6 11.7 57% 75.95 1012.4
14 22:54 Vrbl 7 16.09 Mostly Cloudy BKN055 21.7 11.7 53% 75.92 1012.0
14 21:54 NE 7 16.09 Fair CLR 22.2 12.2 53% 75.9 1011.7
14 20:54 N 7 16.09 Mostly Cloudy FEW060 SCT070 BKN110 22.8 13.9 57% 75.79 1010.3
14 19:54 NW 6 16.09 A Few Clouds FEW100 22.8 17.2 28.9 22.8 71% 75.72 1009.4
14 18:54 W 6 16.09 Fair CLR 25.6 13.9 48% 26 75.69 1009.1
14 17:54 SW 11 16.09 A Few Clouds FEW080 26.7 12.8 42% 27 75.69 1008.9
14 16:54 W 15 G 30 16.09 Fair CLR 28.3 13.3 40% 28 75.69 1008.8
14 15:54 SW 15 G 28 16.09 Fair CLR 27.8 14.4 44% 28 75.69 1008.7
14 14:54 SW 11 16.09 Fair CLR 26.7 14.4 47% 27 75.72 1009.3
14 13:54 SW 15 16.09 Fair CLR 26.1 16.7 26.1 17.2 56% 27 75.74 1009.7 0.03
14 12:54 S 15 16.09 Fair CLR 22.8 18.3 76% 75.79 1010.2
14 11:54 S 11 16.09 Fair CLR 21.1 17.8 82% 75.82 1010.8
14 10:54 Calm 16.09 Mostly Cloudy BKN011 20 17.2 84% 75.84 1011.0 0.03
14 09:54 S 7 16.09 Partly Cloudy SCT010 19.4 16.7 84% 75.82 1010.8
14 08:54 Calm 14.48 Light Rain SCT036 BKN044 BKN055 18.3 15.6 84% 75.82 1010.7 0.03
14 07:54 Calm 11.27 Mostly Cloudy BKN090 BKN110 17.2 15.6 18.9 15 90% 75.84 1010.9 0.03 0.08
14 06:54 Calm 4.83 Rain Fog/Mist FEW060 OVC095 16.1 14.4 90% 75.79 1010.2 0.05
14 05:54 Calm 16.09 Mostly Cloudy BKN085 BKN120 16.1 13.9 87% 75.82 1010.6
14 04:54 Calm 16.09 Fair CLR 15.6 13.3 86% 75.82 1010.4
14 03:54 SW 7 16.09 Fair CLR 17.2 13.3 78% 75.77 1009.9
14 02:54 SW 6 16.09 Fair CLR 16.7 13.3 80% 75.79 1010.2
14 01:54 Calm 16.09 Fair CLR 16.1 13.9 26.1 16.1 87% 75.84 1010.8
14 00:54 Calm 16.09 Fair CLR 17.2 14.4 84% 75.87 1011.1
13 23:54 N 6 16.09 Fair CLR 17.8 13.9 78% 75.9 1011.7
13 22:54 NW 6 16.09 Fair CLR 18.9 14.4 75% 75.95 1012.2
13 21:54 NW 6 16.09 Fair CLR 20 15 73% 75.95 1012.2
13 20:54 Calm 16.09 Fair CLR 21.7 15.6 68% 75.92 1011.8
13 19:54 S 7 16.09 Mostly Cloudy BKN100 26.1 13.3 29.4 26.1 45% 26 75.9 1011.8
13 18:54 SW 7 16.09 A Few Clouds FEW080 27.8 12.2 38% 27 75.9 1011.7
13 17:54 W 17 16.09 Overcast OVC080 29.4 11.7 33% 28 75.95 1012.3
13 16:54 W 17 G 26 16.09 Fair CLR 29.4 10.6 31% 28 75.92 1011.9
13 15:54 S 15 G 28 16.09 Fair CLR 29.4 9.4 29% 28 75.95 1012.2
13 14:54 SW 15 16.09 Fair CLR 28.9 9.4 30% 28 76.02 1013.2
13 13:54 SE 15 16.09 Fair CLR 27.8 12.8 27.8 13.3 40% 27 76.05 1013.5
13 12:54 Calm 16.09 Fair CLR 26.7 12.2 41% 27 76.1 1014.2
13 11:54 Vrbl 6 16.09 Fair CLR 24.4 11.7 45% 26 76.12 1014.7
13 10:54 Calm 16.09 Fair CLR 23.3 12.2 50% 76.17 1015.4
13 09:54 Calm 16.09 Fair CLR 21.1 12.8 59% 76.2 1015.9
Date Time (edt) Wind (kph) Vis. (km) Weather Sky Cond. Air Dwpt Max. Min. Relative Humidity Wind Chill (°C) Heat Index (°C) altimeter (cm) sea level (mb) 1 hr 3 hr 6 hr
6 hour
Temperature (ºC) Pressure Precipitation (cm)